Theta_e
316 318 314 319 323 323 325 327 326 328 328 327 326 328 330 332 345 350 351 351 353 356 357 351 347 338 333 333 332 332 334 341 344 344 340 336 335 332 334 340 344 346 345 343 341 337 336 338 337
319 315 317 319 321 322 322 324 326 328 327 325 325 326 330 345 343 353 351 352 354 357 356 356 345 338 333 332 332 331 330 335 341 343 339 337 334 331 336 339 342 343 339 338 333 328 328 329 329
316 315 317 320 320 318 322 322 323 325 327 325 326 325 329 347 351 351 351 353 355 357 357 356 344 338 333 333 332 330 329 330 335 337 336 334 330 331 339 340 340 339 339 336 334 331 327 328 329
314 315 316 321 320 319 319 321 322 323 322 322 322 324 325 350 350 348 353 354 355 356 357 352 345 339 334 333 332 330 328 327 328 329 329 327 329 336 339 338 337 336 334 332 331 330 328 328 329
312 312 315 316 318 319 320 320 320 322 321 322 320 323 324 344 347 353 355 354 354 354 356 352 346 340 335 333 333 331 328 325 324 324 324 325 330 334 335 335 334 333 332 332 331 327 328 329 331
317 313 313 313 315 315 317 319 319 319 320 321 321 322 327 352 352 355 355 354 353 354 356 355 348 342 336 334 333 331 329 326 324 324 324 326 330 333 335 335 334 333 332 334 334 330 328 329 331
319 316 317 315 314 313 314 315 318 319 319 320 321 322 327 353 353 354 354 354 354 354 355 356 354 344 338 335 333 332 330 328 325 325 326 328 331 333 333 333 333 335 335 332 329 329 328 329 329
318 317 318 317 316 315 315 315 315 316 317 318 319 320 321 339 354 353 354 355 354 354 354 355 355 351 344 336 333 333 332 330 327 326 326 328 331 332 334 335 335 337 332 328 328 329 329 329 328
314 320 319 319 317 317 313 314 314 314 316 316 318 320 329 346 353 352 354 355 355 354 354 354 354 353 348 346 338 333 333 332 330 328 328 331 343 342 339 341 337 333 332 332 330 329 328 329 329
319 320 319 318 318 317 315 314 315 316 316 317 318 320 348 351 353 354 354 355 354 353 353 353 353 352 350 347 346 345 343 340 340 339 331 342 345 345 344 340 335 334 333 332 332 331 330 330 336
316 319 319 318 318 317 317 316 316 316 317 318 318 319 345 352 353 354 354 354 353 352 352 352 352 351 350 347 347 346 345 346 344 340 341 343 343 342 342 343 343 343 336 341 339 339 339 338 338
313 315 316 318 318 319 318 318 318 318 318 319 319 319 334 346 352 354 353 354 353 352 352 354 351 349 350 349 346 346 345 345 344 343 334 338 340 341 341 341 342 342 342 344 342 341 340 341 341
314 312 311 311 314 316 317 318 318 319 318 319 319 319 320 321 333 344 353 353 353 352 351 351 349 352 350 350 347 346 345 345 344 343 341 340 340 339 339 341 340 341 345 345 345 344 343 343 343
313 314 314 314 314 313 313 314 315 316 319 319 320 320 320 320 321 326 352 353 352 351 350 350 352 351 350 349 349 347 346 346 346 344 343 336 336 331 337 337 339 340 345 346 347 346 346 345 344
313 315 315 314 315 315 313 313 314 314 315 316 317 318 319 319 319 323 347 353 352 351 349 349 351 350 351 349 349 347 346 346 345 343 341 335 332 332 335 335 338 340 342 343 345 345 345 344 342
315 315 316 316 315 314 315 314 314 315 315 316 316 316 317 318 319 331 345 352 352 351 349 348 348 350 349 348 349 348 347 346 345 344 338 336 331 329 333 337 339 341 342 342 346 345 344 342 340
316 315 316 317 317 315 315 316 316 316 317 318 318 318 317 318 321 330 350 353 352 351 350 349 348 348 347 348 348 348 348 346 344 344 343 340 331 330 340 342 343 344 344 344 344 343 342 340 338
314 316 316 317 317 315 316 316 316 316 316 317 319 320 320 320 321 335 354 354 353 351 350 348 348 347 347 348 348 346 346 345 344 344 342 333 332 331 336 341 341 343 346 344 343 341 339 336 332
312 314 316 315 316 315 315 316 317 318 318 318 318 319 320 321 322 323 353 354 353 352 351 349 349 349 348 346 345 345 345 344 343 342 338 335 332 331 334 341 341 346 344 343 341 338 333 331 329
310 312 315 314 313 314 315 316 315 315 316 316 318 319 319 321 321 325 341 354 352 351 351 350 348 347 346 345 345 344 344 344 343 342 337 335 338 336 336 338 344 344 343 340 338 335 333 329 329
310 310 311 313 313 313 314 315 315 316 316 317 318 319 320 320 321 328 342 351 352 351 350 349 347 345 345 345 344 344 344 344 344 343 342 343 342 341 340 342 344 342 341 337 333 330 330 331 332
311 309 310 311 313 314 313 316 316 316 317 318 319 320 320 320 320 324 344 349 350 351 350 349 347 346 345 345 343 343 341 341 342 345 344 344 343 343 343 343 342 341 337 332 330 331 330 331 331
312 310 310 310 311 313 314 315 314 315 315 316 319 320 320 320 319 324 337 347 348 349 350 349 347 346 345 345 343 345 344 346 347 345 346 344 343 343 343 343 339 338 332 329 331 331 330 330 329
312 308 309 312 314 320 315 315 313 314 315 316 317 319 319 318 319 325 333 342 347 348 348 348 347 346 345 346 345 346 348 348 345 343 343 341 341 341 339 338 337 331 329 331 329 328 326 323 323
311 310 312 313 316 315 311 313 314 314 314 315 316 317 317 317 318 326 332 340 347 348 348 347 346 346 345 347 347 347 348 346 343 342 340 336 336 338 336 333 330 329 330 330 327 324 323 324 324
315 315 314 313 310 310 311 313 312 313 313 314 315 316 316 316 317 319 328 336 339 346 348 347 345 346 345 347 348 349 349 345 341 339 336 334 332 332 331 327 329 329 327 324 323 323 323 322 321
314 317 313 312 311 315 314 314 313 313 313 314 315 315 315 316 316 317 322 331 336 341 346 346 346 345 345 347 347 347 344 342 338 335 335 334 332 329 328 328 327 323 322 322 322 320 319 317 316
315 316 320 319 320 318 313 314 313 314 314 313 314 315 315 315 316 319 318 328 334 339 343 346 345 344 345 345 344 342 342 338 337 336 333 333 332 331 330 323 320 320 319 318 316 315 314 313 312
318 321 321 320 319 319 316 314 315 315 314 314 314 314 314 315 315 317 321 323 331 338 341 345 344 341 344 342 339 339 337 337 335 333 329 330 329 328 325 319 316 316 314 313 314 312 311 310 311
311 313 317 320 319 319 318 318 314 317 316 317 316 315 314 315 315 315 320 325 331 337 341 342 342 342 340 338 337 336 335 333 330 326 325 324 324 321 319 317 315 313 313 312 310 309 310 310 311
Wind_Speed
5 5 3 2 3 2 6 7 2 7 4 3 3 4 7 10 5 2 1 15 25 32 31 34 35 33 33 32 30 29 28 28 27 26 25 24 23 25 27 25 22 18 15 13 13 12 11 10 9
8 6 2 2 4 7 10 9 17 13 4 5 4 4 4 4 5 4 11 13 27 30 33 30 36 34 33 30 29 28 27 28 28 26 24 23 23 24 25 23 20 17 14 13 12 11 10 10 10
9 4 3 4 5 13 12 8 11 11 11 4 5 3 4 2 1 5 8 23 29 29 29 31 36 34 32 29 28 27 27 27 27 25 23 23 24 25 24 20 17 15 13 13 11 9 9 9 9
5 3 2 7 17 19 16 1 1 5 2 2 3 8 4 2 1 6 22 27 30 28 28 34 35 33 31 29 27 26 26 25 25 24 24 25 25 25 22 19 16 15 14 11 10 9 9 8 8
2 1 5 9 22 19 9 5 1 1 2 4 4 4 5 2 1 14 26 29 35 30 27 33 35 33 31 29 27 26 25 25 24 25 25 26 26 24 22 18 16 13 12 10 9 7 7 6 6
5 1 7 18 24 23 12 12 7 6 7 7 5 5 4 4 8 15 21 28 33 32 29 29 35 33 31 30 28 27 25 24 24 24 25 25 24 22 20 17 15 12 10 9 7 7 6 5 4
7 5 17 20 20 23 17 9 10 11 16 16 7 6 4 2 6 15 19 24 28 29 29 28 30 33 31 30 29 28 26 24 24 24 24 23 22 19 17 15 13 11 9 7 6 6 5 4 4
5 4 16 15 17 30 10 5 6 13 16 9 7 8 9 1 13 16 18 22 26 27 27 27 27 28 29 30 30 28 27 25 24 23 23 22 19 17 16 14 11 9 7 6 6 5 4 4 3
4 9 18 26 21 17 3 4 3 1 7 5 8 6 6 5 18 20 20 23 26 25 26 26 26 25 26 25 28 29 27 26 24 23 22 21 16 15 15 13 11 9 7 6 5 4 4 3 2
12 14 24 12 17 16 11 15 13 6 7 8 8 4 4 12 18 21 25 25 30 30 29 28 27 27 26 25 25 24 24 23 23 22 23 18 16 15 13 11 10 8 7 5 3 3 2 2 1
11 23 19 14 17 17 19 16 11 12 14 11 12 4 4 9 14 16 19 26 33 30 28 29 29 28 28 26 26 24 22 21 21 23 22 18 16 14 12 9 6 6 5 4 3 2 2 2 1
14 18 20 18 17 15 15 16 18 19 21 11 12 5 5 8 11 15 18 21 28 32 28 29 27 30 27 25 25 23 22 21 21 21 24 22 19 18 16 12 8 6 5 4 3 2 3 1 1
20 17 15 12 16 24 17 21 20 23 9 13 11 10 11 11 13 16 21 22 25 29 27 28 30 29 28 26 24 23 22 23 21 22 22 20 18 17 15 12 11 8 5 4 3 3 2 2 2
11 16 17 15 24 21 14 20 21 29 19 19 20 22 21 20 18 18 23 28 30 30 30 30 30 29 28 26 25 24 23 22 21 21 21 23 20 21 18 15 12 10 6 4 3 3 3 3 4
11 17 18 21 18 16 17 26 34 19 18 16 16 15 17 16 15 17 31 32 34 35 30 31 31 30 29 26 26 25 22 20 21 22 21 22 21 19 15 16 15 11 6 4 5 5 4 0 1
8 11 13 6 17 19 12 31 30 17 18 23 24 22 20 19 16 20 28 33 33 31 31 30 31 30 29 27 25 23 20 19 19 18 21 21 20 17 14 13 12 9 6 6 4 6 2 1 1
12 15 15 12 13 11 23 22 12 14 13 16 18 19 21 18 14 19 28 32 35 35 33 32 32 31 31 26 24 21 19 19 18 18 17 19 19 19 15 13 9 6 6 5 7 4 2 1 3
18 17 17 13 4 8 14 21 18 16 12 10 13 13 16 17 17 19 28 29 32 33 32 32 30 30 31 24 21 19 18 18 18 16 15 19 20 18 16 12 9 6 6 6 4 3 2 2 2
20 21 24 17 18 15 20 17 14 12 14 11 14 13 12 14 12 12 25 29 30 30 33 34 33 31 30 28 26 23 22 19 18 16 17 18 19 19 17 13 9 7 7 6 6 4 2 3 5
20 23 21 23 19 17 20 23 16 18 17 14 13 15 14 14 12 10 21 27 32 34 33 33 33 32 33 28 24 19 21 17 17 16 17 16 16 17 17 14 10 9 8 6 4 4 3 4 5
21 22 20 22 18 19 19 26 24 23 16 15 18 17 16 15 15 11 16 26 29 30 34 35 36 34 33 27 24 16 17 13 15 17 15 16 16 17 17 14 12 9 6 6 6 5 4 4 4
20 17 22 20 18 18 17 20 19 8 10 17 20 19 17 14 12 12 15 19 29 32 33 32 32 31 30 28 27 25 24 19 16 18 17 17 17 15 15 13 9 9 8 9 7 5 5 6 4
17 17 19 21 21 20 18 12 17 14 15 18 16 21 17 10 11 14 16 21 28 29 32 30 28 28 30 29 29 25 22 19 18 21 21 21 19 16 12 9 7 8 10 10 8 7 7 6 3
14 11 10 7 10 11 19 16 17 18 19 13 12 14 14 11 12 13 16 20 19 23 24 28 29 28 29 28 28 26 24 20 21 23 22 20 23 21 15 9 13 13 13 12 11 9 8 8 6
7 9 7 8 9 11 14 14 19 5 16 15 6 7 7 5 6 10 13 14 18 22 25 27 29 29 31 29 27 26 22 19 23 26 26 26 24 23 17 18 18 15 14 15 12 10 9 9 7
11 14 9 9 12 14 12 12 16 21 25 14 11 8 12 10 3 7 11 14 18 22 25 28 30 30 31 29 25 23 21 21 22 24 25 26 24 23 23 18 20 17 15 15 13 11 9 8 8
4 12 17 16 18 10 8 14 21 19 19 19 20 14 14 13 9 8 9 12 17 21 25 28 29 26 29 28 25 25 25 26 29 29 27 33 30 27 20 15 18 16 15 15 13 12 11 8 7
18 4 4 5 5 9 11 16 13 8 20 22 21 20 18 16 13 8 8 12 18 21 24 25 24 23 27 28 28 31 33 34 30 29 33 33 30 25 23 19 16 20 18 16 14 13 10 7 7
4 3 7 4 4 5 9 7 7 12 12 4 12 16 18 18 18 13 8 11 18 19 21 22 24 26 28 29 34 35 36 32 32 37 31 35 36 34 31 23 19 20 17 15 14 12 9 8 8
14 14 15 6 5 8 10 14 9 4 6 3 11 9 11 16 17 15 8 8 15 18 21 23 25 28 30 36 37 37 36 36 37 33 35 36 38 32 28 24 20 18 16 14 11 10 10 11 10
Wind_Direction
176 163 154 154 239 262 243 230 231 192 231 167 306 259 292 269 227 226 278 163 160 157 159 163 166 165 161 156 149 147 150 155 159 157 153 151 149 149 150 149 147 145 140 138 140 140 140 142 141
160 144 104 133 235 232 251 215 221 200 181 320 270 243 259 276 231 118 116 158 158 156 160 160 167 167 164 156 152 150 151 154 158 158 155 154 151 151 150 149 148 149 145 145 143 140 141 141 142
153 154 193 209 216 229 249 214 243 219 241 266 295 233 287 267 169 158 148 150 157 158 159 164 169 168 165 159 154 153 153 154 156 157 156 155 153 151 150 150 149 147 146 144 142 141 142 142 143
161 157 126 230 222 240 243 224 145 162 200 226 351 266 269 26 349 165 152 151 156 160 161 167 171 170 166 162 157 155 153 153 154 156 156 155 154 152 152 152 152 150 149 150 150 151 151 150 150
99 181 218 234 240 247 242 228 133 150 343 308 353 273 281 18 105 148 156 158 159 162 163 167 173 171 168 164 161 157 154 153 154 156 156 156 156 157 158 159 156 155 152 152 149 149 152 153 153
175 244 221 232 236 247 243 242 244 248 267 270 273 284 278 103 139 154 161 163 164 162 162 167 174 173 170 168 164 160 157 155 155 157 157 157 160 162 163 164 164 163 156 151 148 146 148 149 146
221 205 232 247 252 261 250 228 226 244 244 237 252 271 275 162 163 161 164 164 166 163 162 164 169 175 173 171 168 164 159 158 158 159 160 162 163 165 167 168 166 162 157 151 148 149 149 146 142
221 241 241 233 235 255 252 217 249 231 254 236 212 234 242 32 163 158 159 166 166 166 166 166 166 169 171 174 172 167 163 162 161 162 163 164 163 164 164 164 165 164 156 149 147 146 149 148 164
166 233 240 231 230 241 153 221 225 204 240 201 201 260 314 165 157 156 158 164 167 170 170 169 168 170 170 169 172 170 167 164 163 163 167 165 162 162 165 170 169 166 157 152 153 156 159 162 200
205 229 238 245 240 248 248 243 249 233 201 225 251 220 86 151 170 174 173 175 175 174 175 174 171 171 168 168 168 167 165 165 164 165 169 168 170 169 168 171 173 168 161 162 168 167 183 137 203
217 241 238 242 240 236 247 250 241 246 243 235 244 254 173 163 185 199 198 190 183 177 176 177 174 170 171 171 170 170 170 171 172 172 172 174 172 172 172 171 172 167 176 163 180 197 198 173 194
258 246 255 262 252 253 248 257 242 236 240 239 251 251 197 210 202 204 209 200 187 183 181 176 177 173 174 173 172 174 177 177 176 178 179 177 176 179 178 172 172 181 181 182 179 231 219 187 23
251 268 271 286 261 265 266 260 263 254 234 234 250 258 244 251 246 235 213 199 196 187 183 178 178 175 175 175 176 179 183 183 183 182 184 180 179 180 177 173 167 175 181 182 188 224 234 244 262
277 292 284 281 264 256 256 270 260 252 242 240 250 260 260 253 244 240 210 198 195 191 187 179 180 180 179 178 179 182 187 190 187 186 188 187 185 184 178 172 176 172 187 212 220 255 260 259 257
273 291 290 268 260 269 246 262 246 258 253 244 226 237 246 242 222 227 211 202 194 192 186 185 182 181 182 183 185 187 193 193 192 190 189 189 189 189 183 175 175 180 183 233 251 253 249 291 258
277 274 274 283 247 234 215 254 254 251 226 227 233 239 246 247 240 231 210 202 192 185 186 186 186 184 183 187 187 189 194 197 196 192 191 196 190 190 183 177 177 177 201 226 234 226 236 238 258
250 262 261 287 260 258 215 254 274 254 226 232 233 232 240 238 235 229 204 198 187 185 184 183 187 184 186 186 189 191 195 196 194 192 190 191 190 191 192 182 178 180 199 209 195 215 171 194 298
264 253 247 253 241 304 270 259 276 280 287 281 262 247 244 240 233 205 196 194 189 183 183 183 188 186 185 188 186 190 195 196 193 194 190 192 195 195 196 202 188 197 189 189 183 173 184 224 319
269 265 265 253 264 277 279 277 277 278 288 267 274 264 251 241 240 206 196 191 184 181 180 185 189 188 183 188 184 189 193 195 196 194 195 193 197 197 197 204 193 181 164 168 168 164 174 66 14
251 256 258 271 258 261 274 278 270 275 271 267 267 270 258 251 235 198 190 188 183 182 184 187 192 188 189 193 183 187 187 197 191 193 198 198 193 192 197 200 186 170 159 170 166 165 154 72 34
247 246 249 246 256 253 270 273 271 270 258 254 260 256 254 252 245 204 184 186 185 183 187 191 189 190 190 189 177 169 171 170 181 190 186 189 189 193 194 188 172 163 164 157 143 151 150 140 72
257 246 251 253 254 259 233 265 262 245 266 231 234 244 245 247 248 229 191 184 188 191 192 190 191 188 189 185 183 184 185 184 190 182 179 176 185 185 176 164 160 162 154 139 139 131 133 120 129
258 270 248 251 253 253 238 249 257 245 256 244 232 234 240 229 241 221 207 196 196 190 192 191 185 188 189 188 186 185 186 180 169 174 175 183 179 168 144 139 152 150 146 138 133 129 110 99 99
258 251 251 267 279 248 244 233 252 235 244 263 240 228 225 211 225 225 217 209 199 193 188 186 185 187 187 189 186 185 182 172 157 170 169 165 154 148 151 159 170 156 145 137 128 117 105 99 92
218 223 234 243 224 247 241 241 247 264 226 231 176 176 166 144 200 225 219 207 203 192 189 188 184 185 189 189 185 189 183 168 169 163 161 145 140 137 136 162 154 144 136 133 122 111 101 93 90
268 238 227 247 250 259 229 242 245 230 235 214 213 225 273 283 238 228 227 218 210 196 191 189 185 183 187 185 184 183 170 156 155 149 134 122 120 126 143 156 135 135 134 123 114 107 98 93 86
260 229 245 258 259 269 266 248 256 250 224 223 227 225 231 248 248 235 227 223 213 202 198 194 187 182 179 176 165 164 159 159 143 140 139 131 129 125 131 138 134 133 125 117 116 107 100 93 83
229 115 203 204 236 231 239 254 251 233 223 212 211 206 215 231 240 225 213 214 211 205 199 195 187 176 169 161 157 148 151 148 145 147 139 135 132 135 158 149 139 124 116 114 111 98 96 86 63
188 218 212 231 210 257 270 255 288 265 237 221 233 224 220 221 230 227 208 210 206 200 194 183 170 159 156 147 146 143 143 145 145 144 140 140 145 148 151 146 136 115 116 108 98 94 83 69 60
266 261 249 249 214 235 262 270 295 325 238 222 247 208 213 225 228 234 226 191 191 189 180 170 158 151 143 140 140 140 139 141 141 141 143 145 144 143 142 132 124 119 107 98 94 90 80 73 68